SCP
-0 -0 0 0 0 0 0 0 0 0 0 0 0 0 0 0 0 0 0 0 0 0 0 0 0 0 0 0 0 0 0 0 0 0 0 0 0 0 0 0 0 0 0
0 -0 -0 0 0 0 0 0 0 0 0 0 0 0 0 0 0 0 0 0 0 0 0 0 0 0 0 0 0 0 0 0 0 0 0 0 0 0 0 0 0 0 0
0 -0 -0 0 0 0 0 0 0 0 0 0 0 0 0 0 0 0 0 0 0 0 0 0 0 0 0 0 0 0 0 0 0 0 0 0 0 0 0 0 0 0 0
0 0 0 0 0 0 0 0 0 0 0 0 0 0 0 0 0 0 0 0 0 0 0 0 0 0 0 0 0 0 0 0 0 0 0 0 0 0 0 0 0 0 0
0 0 0 0 0 0 0 0 0 0 0 0 0 0 0 0 0 0 0 0 0 0 0 0 0 0 0 0 0 0 0 0 0 0 0 0 0 0 0 0 0 0 0
0 0 0 0 0 0 0 0 0 0 0 0 0 0 -0 -0 -0 0 0 0 0 0 0 0 0 0 0 0 0 0 0 0 0 0 0 0 0 0 0 0 0 0 0
0 0 0 0 0 0 0 0 0 0 0 0 0 -0 -0 -0 -0 0 0 0 0 0 0 0 0 0 0 0 0 0 0 0 0 0 0 0 0 0 0 0 0 0 0
0 0 0 0 0 0 0 0 0 0 0 0 0 -0 -0 -0 -0 -0 0 0 0 0 0 0 0 0 0 0 0 0 0 0 0 0 0 0 0 0 0 0 0 -0 -0
0 0 0 0 0 0 0 0 0 0 0 0 0 -0 -0 -0 -0 0 0 0 0 0 0 0 0 0 0 0 0 0 0 0 0 0 0 0 0 0 0 0 0 0 -0
0 0 0 0 0 0 0 0 0 0 0 0 0 0 -0 -0 -0 0 0 0 0 0 0 0 0 0 0 0 0 0 0 0 0 0 0 0 0 0 0 0 0 0 0
0 0 0 0 0 0 0 0 0 0 0 0 0 0 0 -0 0 0 -0 -0 0 0 0 0 0 0 0 0 0 0 0 0 0 0 0 0 0 0 0 0 0 0 0
0 0 0 0 0 0 0 0 0 0 0 0 0 0 0 0 0 -0 -0 0 0 0 0 0 0 0 0 0 0 0 0 0 0 0 0 0 0 0 0 0 0 0 0
0 0 0 0 0 0 0 0 0 0 0 0 0 0 0 0 0 -0 -0 0 0 0 0 0 0 0 0 0 0 0 0 0 0 0 0 0 0 0 0 0 0 0 0
0 0 1 1 0 0 0 0 0 0 0 0 0 0 0 0 0 0 0 0 0 0 0 0 0 0 0 0 0 0 0 0 0 0 0 0 0 0 0 0 0 0 0
0 0 1 1 1 0 0 0 0 0 0 0 0 0 0 0 0 0 0 0 0 0 0 0 0 0 0 0 0 0 0 0 0 0 0 0 0 0 0 0 0 0 0
0 0 0 1 1 0 0 0 0 0 0 0 0 0 0 0 0 0 0 0 0 0 0 0 0 0 0 0 0 0 0 0 0 0 0 0 0 0 0 0 0 0 0
0 0 0 0 1 0 0 0 0 0 0 0 0 0 0 0 0 0 0 0 0 0 0 0 0 0 0 0 0 0 0 0 0 0 0 0 0 0 0 0 0 0 0
0 0 0 0 0 0 0 0 0 0 0 0 0 0 0 0 0 0 0 0 0 0 0 0 0 0 0 0 0 0 0 0 0 0 0 0 0 0 0 0 0 0 0
0 0 0 0 0 0 0 0 0 0 0 0 0 0 0 0 0 0 0 0 0 0 0 0 0 0 0 0 0 0 0 0 0 0 0 0 0 0 0 0 0 0 0
0 0 0 0 0 0 0 0 0 0 0 0 0 0 0 0 0 0 0 0 0 0 0 0 0 0 0 0 0 0 0 0 0 0 0 0 0 0 0 0 0 0 0
0 0 0 0 0 0 0 0 0 0 0 0 0 0 0 0 0 0 0 0 0 0 0 0 0 0 0 0 0 0 0 0 0 0 0 0 0 0 0 0 0 0 0
0 0 0 0 0 0 0 0 0 0 0 0 0 0 0 0 0 0 0 0 0 0 0 0 0 0 0 0 0 0 0 0 0 0 0 0 0 0 0 0 0 0 0
0 0 0 0 0 0 0 0 0 0 0 0 0 0 0 0 0 0 0 0 0 0 0 0 0 0 0 0 0 0 0 0 0 0 0 0 0 0 0 0 0 0 0
0 0 0 0 0 0 0 0 0 0 0 0 0 0 0 0 0 0 0 0 0 0 0 0 0 0 0 0 0 0 0 0 0 0 0 0 0 0 0 0 0 0 0
0 0 0 0 0 0 0 0 0 0 0 0 0 0 0 0 0 0 0 0 0 0 0 0 0 0 0 0 0 0 0 0 0 0 0 0 0 0 0 0 0 0 0
0 0 0 0 0 0 0 0 0 0 0 0 0 0 0 0 0 0 0 0 0 0 0 0 0 0 0 0 0 0 0 0 0 0 0 0 0 0 0 0 0 0 0
Wind_Speed
5 6 14 16 15 15 14 12 10 9 8 7 7 9 11 11 10 8 7 6 4 4 5 7 8 7 7 8 8 7 5 5 5 7 7 7 7 7 6 5 3 2 5
7 8 14 16 16 15 13 12 10 8 7 7 8 10 10 9 8 6 5 4 4 4 4 5 6 8 8 7 6 4 3 3 5 6 6 6 7 7 6 6 4 2 5
8 10 11 15 16 15 14 12 10 8 8 7 9 10 9 7 6 5 4 3 3 4 4 4 4 5 6 6 5 3 2 3 4 5 5 3 5 8 8 6 6 5 6
10 9 9 14 16 16 14 13 11 9 8 8 8 8 7 7 6 5 4 4 4 4 4 4 4 4 4 4 3 3 3 4 4 3 2 2 3 8 10 5 7 7 6
9 8 9 14 16 16 15 13 11 10 9 8 7 6 6 6 7 6 5 4 3 3 3 4 3 3 3 2 3 3 4 4 3 2 1 2 2 8 9 8 7 7 7
7 7 9 14 15 15 15 13 12 10 9 8 8 6 5 5 6 7 6 5 4 3 2 2 1 1 1 3 4 4 5 4 3 1 3 3 3 8 10 9 9 9 9
7 6 7 14 14 15 14 13 12 10 9 9 8 7 6 4 5 6 7 7 5 4 2 1 2 3 4 5 6 7 7 6 3 3 4 4 5 11 11 10 11 11 11
8 7 7 13 12 14 14 13 12 11 9 9 8 8 6 3 4 3 7 7 5 4 4 4 5 6 7 7 8 8 8 6 5 3 4 5 9 12 12 11 11 12 13
6 6 6 7 9 12 12 12 12 11 9 8 8 7 4 2 3 1 4 5 5 5 5 6 7 8 8 8 8 8 7 7 4 3 5 4 9 12 13 12 12 13 14
5 5 6 5 6 6 7 10 11 9 8 8 7 5 4 1 2 2 1 3 4 5 6 7 8 8 8 8 9 9 8 6 3 4 3 5 11 12 12 13 12 13 15
5 5 5 5 5 6 6 7 8 8 8 7 5 5 4 1 2 3 3 4 4 6 7 8 8 9 9 9 11 11 8 3 4 3 3 7 9 10 11 12 11 11 11
9 8 6 7 6 5 6 4 4 4 4 4 3 3 2 1 1 2 4 5 5 5 5 7 9 10 9 5 8 9 4 5 4 3 4 9 8 8 10 12 13 12 11
8 8 9 9 8 7 4 4 3 3 3 3 4 3 2 2 1 1 1 2 3 4 4 6 7 6 5 5 4 4 5 4 3 3 5 11 12 12 14 15 17 17 17
6 9 9 10 9 8 6 4 4 3 3 3 3 4 3 2 2 2 2 3 3 3 4 5 4 5 5 5 5 5 5 4 3 3 5 14 15 15 15 16 16 16 16
8 10 11 11 11 9 7 4 5 4 4 3 3 3 4 3 3 4 3 4 5 4 4 4 4 4 5 5 5 5 6 5 5 5 4 14 17 18 18 17 17 16 16
10 12 12 13 13 10 8 6 5 4 4 4 3 4 5 5 5 5 5 5 4 4 4 4 4 4 4 3 5 5 5 4 5 5 5 8 16 18 18 18 17 16 16
10 10 11 13 12 12 10 8 5 5 5 4 4 6 7 7 7 6 5 5 4 4 4 4 4 4 4 4 4 4 4 3 4 4 4 4 5 14 17 17 18 16 15
8 7 9 11 12 12 9 7 5 6 6 5 6 7 9 8 8 7 6 5 4 3 3 4 4 4 4 4 4 3 3 2 3 3 3 3 3 5 9 16 17 16 15
7 6 8 10 12 11 9 8 7 7 6 6 6 7 8 8 8 8 6 4 4 4 4 4 4 4 4 5 5 3 2 1 1 2 2 2 3 3 4 9 16 15 14
4 5 7 9 11 12 10 9 8 8 6 6 6 8 9 8 9 8 6 5 4 5 5 4 5 4 3 4 5 5 3 2 1 0 1 1 2 4 5 4 5 8 14
3 6 8 11 12 12 11 9 8 7 6 6 6 8 9 9 8 7 6 5 5 5 5 4 3 5 5 4 4 5 4 2 2 2 1 1 2 4 5 5 5 4 5
5 6 8 11 11 11 9 6 5 6 6 6 6 7 7 8 8 7 7 5 5 5 6 6 5 3 3 4 3 3 6 6 5 3 3 2 3 4 5 7 7 6 6
6 8 9 10 10 10 11 11 10 7 6 5 6 5 5 7 8 7 7 6 6 5 5 5 5 4 3 3 3 3 3 4 5 5 5 3 4 4 4 5 7 7 9
7 7 9 10 11 12 13 15 16 11 8 5 5 5 6 7 7 7 7 7 6 5 5 4 4 3 3 2 3 2 1 2 3 6 5 3 4 5 6 7 8 10 9
7 8 9 10 10 11 10 15 14 10 8 8 8 8 7 6 6 6 6 6 6 5 5 4 4 3 2 1 1 1 2 2 3 4 7 5 5 4 5 7 8 8 8
7 8 10 11 10 8 10 11 14 16 16 13 10 8 6 5 5 6 6 6 5 4 4 4 3 3 1 0 1 1 1 2 2 3 6 10 10 6 8 8 7 6 6
Wind_Direction
208 188 184 163 157 152 148 146 140 136 134 138 151 153 147 140 132 124 115 102 82 61 53 51 53 75 104 113 106 98 86 61 31 20 16 12 1 340 315 302 309 323 302
166 172 182 163 159 154 151 148 144 144 143 144 148 143 140 137 132 129 124 110 81 57 55 51 50 59 69 78 84 85 69 33 8 7 19 22 1 340 310 282 275 255 280
148 165 175 164 161 157 154 152 151 152 149 149 149 143 138 137 136 139 131 112 78 57 56 62 57 60 59 54 50 40 20 358 345 351 25 21 347 342 331 269 249 261 279
152 158 163 166 163 160 157 156 157 157 155 156 155 150 146 148 155 154 143 122 86 67 67 72 68 64 58 42 18 348 329 325 342 347 32 1 339 328 333 300 243 247 269
149 151 161 166 166 163 161 161 162 162 161 162 159 159 163 171 178 173 161 140 108 87 83 87 81 67 48 20 346 325 321 327 350 349 322 320 314 312 312 306 282 268 274
147 148 160 165 169 167 166 166 167 168 168 168 166 168 179 199 207 200 185 166 153 146 129 107 91 40 333 316 310 307 308 321 345 302 292 294 289 299 297 289 289 283 269
151 153 164 169 175 172 171 171 172 174 175 177 180 183 195 217 239 227 197 181 181 191 213 263 308 320 317 313 311 311 317 329 320 280 280 281 281 291 291 281 276 278 272
159 162 168 177 178 176 176 175 177 178 179 183 190 196 203 235 293 243 187 186 199 221 251 281 307 317 316 316 316 318 319 315 309 292 277 272 282 292 291 284 275 270 270
162 165 173 178 178 177 176 178 181 182 182 184 190 196 195 229 336 97 169 194 216 246 275 297 315 321 321 322 323 324 320 312 306 287 286 282 293 297 295 288 279 271 268
170 177 176 176 172 169 173 179 181 182 182 183 185 178 166 184 357 24 191 227 246 274 297 312 323 329 337 343 351 354 352 342 336 317 306 309 317 314 311 307 297 285 278
190 192 181 178 174 166 167 180 179 180 183 181 177 168 157 127 353 350 316 291 292 304 321 336 354 14 24 25 25 23 19 13 357 346 327 333 338 336 339 345 341 326 311
199 196 188 187 181 172 178 170 166 167 173 163 148 150 144 133 347 323 319 321 329 347 6 27 43 44 44 34 31 33 23 16 19 5 357 6 10 13 19 22 19 13 8
201 198 196 195 189 181 177 163 161 157 161 162 158 157 141 120 42 7 31 23 33 50 56 57 54 46 43 38 34 30 22 20 14 7 6 30 37 42 43 38 35 33 33
194 201 198 196 194 188 179 171 165 162 167 170 167 158 138 115 91 82 76 69 63 64 68 61 59 49 44 40 39 34 24 20 17 13 26 42 42 41 40 36 32 31 29
206 207 198 194 196 189 179 174 170 173 174 171 156 155 144 132 116 96 81 71 65 61 66 68 62 54 43 36 33 33 24 20 24 25 22 43 45 39 36 32 27 25 23
220 216 200 194 191 183 181 178 175 168 155 147 155 159 148 133 120 107 93 79 71 68 70 72 64 51 42 34 32 30 29 28 34 35 32 39 46 39 33 28 21 17 15
232 222 201 194 183 180 180 177 164 152 146 147 145 138 129 122 118 110 98 86 75 69 68 64 55 44 35 25 22 24 31 36 46 45 42 44 47 39 31 26 18 11 9
234 216 197 187 179 176 170 156 143 143 138 134 126 119 116 115 115 106 97 87 77 69 65 62 39 36 23 9 354 1 22 23 50 53 51 56 66 52 28 24 15 4 360
222 200 180 171 168 161 144 131 123 122 118 118 115 110 110 109 108 103 97 91 84 69 52 55 46 39 21 356 334 340 6 342 36 54 57 65 68 59 39 17 9 356 350
198 172 156 146 146 137 126 117 110 103 101 100 103 107 111 109 107 104 97 88 82 71 52 47 50 37 27 351 330 327 326 318 286 2 31 28 36 38 34 13 357 339 341
162 146 145 144 147 144 140 134 127 119 112 100 98 103 108 110 107 102 99 86 78 76 63 47 47 33 16 1 357 336 333 330 298 273 303 292 354 19 21 357 336 317 313
175 154 147 151 153 150 141 126 115 117 106 96 96 96 104 107 104 100 99 95 88 85 65 50 47 42 14 23 29 359 345 338 339 333 327 306 352 9 1 340 319 306 300
186 169 156 151 145 137 129 118 113 103 102 104 104 96 91 97 95 98 99 98 87 85 78 64 55 61 20 3 38 53 12 311 310 311 315 322 342 347 326 312 306 305 299
185 161 149 148 145 145 142 141 144 145 143 140 130 117 98 89 93 95 95 91 86 81 77 67 66 63 58 13 353 20 242 243 290 308 301 303 311 311 297 307 303 292 287
159 152 148 144 147 151 150 150 145 136 123 122 118 111 98 86 86 89 88 85 82 79 77 66 59 52 65 77 337 326 319 296 247 267 291 302 301 276 283 284 284 284 283
149 148 147 146 148 150 148 148 143 138 136 135 131 121 108 96 83 83 84 83 82 77 70 60 54 45 40 16 263 246 246 271 282 275 286 304 304 292 284 277 276 276 277